RH
54 57 65 61 67 48 48 50 49 51 48 51 49 52 53 58 62 66 70 69 74 75 74 75 72 68 71 77 72 72 73 72 74 68 63 65 65 67 57 60 61 57 57
51 58 59 57 49 48 49 48 50 49 51 48 51 52 56 60 58 63 68 68 68 71 71 70 70 55 63 68 74 68 69 70 74 71 70 66 70 69 64 68 53 48 54
49 50 50 54 48 49 48 51 51 52 54 50 51 57 60 61 58 61 60 67 68 67 70 70 67 58 67 72 67 68 70 55 74 79 72 68 69 69 67 69 70 66 55
47 50 54 53 46 46 49 45 55 54 53 51 55 59 65 61 56 58 58 69 67 63 64 64 61 62 60 60 58 63 61 73 76 81 74 70 70 69 78 73 79 75 74
49 47 55 54 53 51 50 53 58 55 50 53 57 62 64 61 54 67 61 65 64 64 66 59 58 61 62 59 56 69 76 81 85 84 78 78 77 75 77 92 80 70 66
49 52 57 59 54 53 54 54 56 56 55 57 58 61 64 50 78 72 67 66 62 64 68 68 62 59 66 65 59 58 65 80 88 94 82 83 74 84 91 86 78 81 82
51 52 54 54 50 51 47 48 50 52 56 59 61 65 67 72 80 75 70 63 64 68 73 71 62 54 69 64 61 61 62 58 75 84 83 80 78 74 78 78 80 85 86
48 52 56 55 50 55 54 55 55 59 60 66 66 65 68 73 82 78 73 68 69 74 74 71 71 72 72 69 73 73 71 71 66 58 74 70 71 71 79 77 81 86 84
47 46 49 54 53 56 58 60 60 53 63 66 64 64 70 78 84 80 71 71 74 76 74 72 73 72 66 61 72 77 78 72 57 59 60 66 68 68 70 86 95 91 91
56 55 56 58 57 62 71 62 59 61 60 64 64 71 71 85 84 79 73 90 87 89 82 76 66 70 63 63 88 89 92 74 73 71 70 71 73 77 76 82 91 95 94
56 57 56 61 65 64 61 61 60 64 68 78 83 81 76 84 87 80 76 84 87 90 90 90 87 68 70 67 67 88 88 75 77 76 78 76 76 79 75 76 81 90 95
55 59 62 61 59 52 60 65 66 69 78 84 92 92 94 87 85 83 81 79 80 91 88 91 91 76 70 69 74 74 70 78 96 93 93 83 90 81 74 79 84 86 81
64 70 67 63 58 55 64 70 76 76 84 86 95 96 96 94 95 87 83 83 81 91 92 86 79 76 73 82 78 75 81 89 94 97 90 95 92 81 80 81 78 78 84
70 71 71 70 67 70 70 75 80 92 95 95 94 94 94 96 96 98 92 88 84 87 86 88 95 96 96 91 88 82 89 94 94 94 96 92 93 95 93 85 85 86 91
70 69 72 76 79 83 80 80 85 85 88 91 93 93 94 96 97 96 97 97 96 91 98 98 96 97 95 94 94 93 94 94 94 95 95 96 94 95 90 86 82 81 91
74 78 89 90 92 88 87 81 80 81 80 81 83 89 90 89 89 89 98 97 94 94 97 98 98 97 96 95 94 93 96 91 96 94 95 96 97 97 94 87 86 88 90
82 85 91 91 90 88 90 91 81 84 78 81 84 86 87 82 86 96 89 91 98 98 98 98 98 97 95 91 93 94 92 94 91 95 96 95 97 95 96 94 94 87 85
85 87 87 88 90 87 88 86 86 91 90 89 88 84 85 88 88 86 93 99 98 98 96 96 95 94 92 91 91 93 96 96 96 97 96 97 98 97 98 95 93 97 89
83 90 88 88 88 88 88 92 98 97 98 92 92 95 93 87 89 90 95 98 96 96 95 95 95 93 92 90 93 93 94 96 97 98 97 99 99 98 97 97 97 95 95
80 86 86 83 85 89 94 97 98 98 98 95 96 96 94 99 98 97 96 98 97 94 94 94 93 93 91 90 94 94 95 96 97 99 98 99 98 98 97 98 98 98 95
81 83 88 83 85 90 90 90 92 98 96 98 88 92 92 97 97 96 96 96 96 96 94 92 91 94 93 91 95 95 93 94 95 96 97 97 100 95 96 98 98 96 96
86 83 81 82 80 83 86 85 95 92 98 96 94 96 94 93 98 97 95 96 94 96 91 90 91 91 91 89 90 92 90 93 94 95 95 97 96 95 97 98 97 97 96
81 84 87 87 85 86 90 93 97 98 97 96 96 95 91 96 98 97 96 95 98 98 97 94 92 93 90 90 89 89 88 88 89 91 93 96 96 96 98 96 97 95 95
93 94 90 90 90 95 95 94 90 97 98 98 99 97 95 97 99 98 97 98 98 98 98 98 98 96 94 91 90 90 86 86 90 89 89 93 93 94 97 97 95 95 96
91 92 90 90 91 93 94 94 95 96 96 96 96 96 95 94 93 96 96 96 98 98 99 98 98 98 98 98 97 92 91 91 92 90 89 90 91 93 96 95 96 95 93
89 91 90 91 92 92 93 94 95 95 95 95 95 96 95 94 93 93 94 94 95 95 98 98 98 98 98 97 97 98 96 95 96 92 88 88 92 96 97 94 95 96 92
Wind_Speed
10 7 8 7 5 6 4 5 5 5 4 4 2 1 2 3 1 2 2 4 4 3 3 3 2 2 1 2 3 3 3 2 4 4 3 3 5 6 8 7 8 8 8
9 9 8 7 6 5 4 5 6 6 5 4 2 1 3 2 2 2 2 2 2 3 3 3 4 2 2 3 3 2 1 2 1 8 5 6 5 6 8 8 9 9 9
10 11 8 6 6 5 3 4 5 5 5 3 1 2 5 4 2 4 3 2 2 1 4 5 3 2 1 1 0 1 1 2 2 2 7 6 6 6 8 8 6 7 8
11 9 7 6 6 4 2 4 4 4 4 1 2 4 5 4 4 3 3 4 4 3 3 4 4 2 4 4 3 3 2 2 2 3 6 7 7 8 5 6 7 6 8
11 10 7 7 6 5 5 5 4 4 2 2 4 6 4 5 3 5 5 5 3 1 3 4 1 3 5 5 0 2 2 2 3 5 6 7 8 8 8 5 7 9 10
11 10 7 7 5 4 4 3 2 2 3 4 4 4 5 3 7 8 6 4 2 0 3 5 3 3 6 6 5 4 3 3 4 3 6 8 10 7 4 5 7 8 9
9 7 7 8 6 5 4 2 3 4 5 6 6 5 5 6 12 11 9 4 3 3 4 4 3 4 5 4 1 4 7 11 7 5 8 6 7 7 5 9 9 8 10
10 10 10 8 7 5 5 6 6 5 5 5 5 6 5 6 14 13 10 5 3 4 4 3 3 3 4 3 1 3 4 5 6 6 4 7 7 7 7 8 10 11 9
12 12 11 7 8 7 8 5 6 9 6 5 5 6 5 3 13 11 8 4 4 4 4 4 3 3 5 1 1 4 5 6 8 13 17 17 19 19 15 7 5 7 9
14 10 9 8 4 5 5 9 8 3 4 4 5 5 6 6 14 15 10 3 5 3 4 1 4 6 3 2 2 3 5 7 7 7 8 11 11 10 12 5 4 7 8
9 5 3 4 5 8 8 3 3 4 5 6 6 6 5 7 8 16 15 5 5 3 3 2 3 7 5 6 7 4 6 6 6 6 7 6 6 5 5 6 6 6 8
5 4 4 3 4 6 6 5 5 5 6 6 4 4 4 5 11 15 16 14 9 5 4 3 4 10 8 9 7 10 13 8 1 4 4 4 4 6 7 7 8 7 8
5 6 4 6 6 5 5 5 4 5 5 5 3 3 4 4 4 15 19 17 13 5 4 7 10 9 11 8 13 15 9 3 3 2 4 3 3 5 8 7 8 9 9
3 5 5 5 5 5 4 4 4 3 3 3 3 4 4 4 4 3 7 9 14 8 7 5 4 5 6 7 7 8 5 4 4 4 3 3 3 3 3 5 7 8 6
5 5 5 4 5 5 5 4 4 5 5 4 4 4 4 5 5 8 8 5 6 8 3 2 4 2 4 4 3 4 3 3 2 2 1 2 3 2 3 5 5 7 5
4 4 4 4 5 5 5 7 7 7 8 10 13 7 5 11 10 13 16 18 17 14 4 3 3 4 4 4 4 4 2 4 3 2 1 1 2 2 3 6 4 5 6
6 6 5 6 5 6 6 6 10 6 13 13 12 12 14 15 13 15 15 15 15 11 3 3 4 4 5 6 6 4 4 3 4 2 2 2 2 3 3 4 4 4 6
7 8 7 7 7 8 8 10 9 6 7 6 8 11 12 15 16 17 16 14 6 10 6 6 7 6 7 7 6 4 3 3 3 3 2 2 2 2 2 3 5 3 4
7 5 7 8 8 9 9 8 8 9 7 8 6 4 8 15 16 16 16 9 7 7 8 8 7 7 7 6 5 4 5 4 4 3 3 2 3 1 2 3 4 5 4
8 9 9 10 10 9 7 7 7 7 7 7 7 7 5 2 4 6 7 8 9 8 7 8 8 8 8 8 6 5 5 4 3 3 3 3 3 3 2 3 3 3 3
7 8 10 10 10 10 10 9 8 6 7 6 8 6 10 7 7 7 7 9 9 8 8 9 8 8 8 8 5 6 7 5 5 4 4 4 3 2 3 2 3 3 2
9 10 10 11 11 11 11 13 7 8 5 5 6 5 11 8 6 6 7 9 10 9 9 9 8 8 8 8 7 7 8 7 5 5 5 4 4 3 2 1 2 2 1
9 10 10 11 13 13 11 8 7 6 5 5 4 7 9 9 5 5 6 8 8 8 8 8 9 8 8 8 8 8 9 9 8 7 6 5 4 3 3 2 1 1 1
10 11 12 10 15 11 10 10 9 8 5 3 2 4 8 7 4 5 6 6 6 8 8 7 8 9 9 9 9 9 9 8 7 8 10 7 5 4 3 2 2 1 0
10 10 11 12 13 13 11 13 13 12 8 7 6 5 6 7 7 7 8 9 6 5 6 6 7 9 12 14 13 14 13 15 11 10 8 8 7 7 4 3 2 1 0
10 9 10 10 11 11 11 11 11 10 10 9 8 7 8 8 8 9 9 9 9 10 9 6 7 11 12 10 13 15 16 16 14 14 9 8 7 4 3 4 4 3 2
Wind_Direction
132 126 119 116 106 120 110 110 112 128 124 97 81 57 320 302 80 78 28 11 12 17 21 56 6 322 319 355 34 50 43 37 298 306 306 314 326 321 313 300 296 297 286
135 127 123 127 130 143 160 146 161 160 142 138 159 357 290 192 158 54 80 80 36 353 360 2 324 13 9 50 88 58 94 257 280 322 316 322 302 294 294 298 301 301 301
135 130 132 139 148 131 76 283 179 156 136 117 80 281 266 192 131 125 124 139 103 335 338 332 293 299 15 137 32 287 301 345 323 297 305 304 294 296 302 299 293 304 313
132 134 135 120 129 81 167 86 185 128 115 114 261 272 270 192 186 167 127 108 84 69 3 336 315 114 180 228 232 255 299 318 284 282 294 297 298 299 285 300 310 307 300
128 119 125 106 82 53 21 205 122 116 201 251 261 263 258 215 215 162 147 136 123 36 342 326 265 258 286 204 173 321 322 284 274 273 287 294 295 302 301 301 300 301 298
127 119 119 93 76 134 145 91 219 261 290 264 249 267 278 209 172 159 153 160 169 199 294 294 289 349 72 81 74 35 338 306 278 255 291 289 293 296 293 293 299 307 308
113 108 100 106 96 62 65 350 6 323 268 253 253 257 263 187 182 173 167 176 180 272 276 273 277 115 129 144 352 339 326 319 306 291 290 300 312 300 283 299 295 288 283
86 73 62 40 59 62 35 5 315 274 280 264 254 256 260 196 188 178 173 173 195 257 276 264 277 172 184 151 356 327 304 298 295 295 307 294 275 278 266 275 285 284 282
76 71 66 66 49 29 8 287 287 285 255 255 241 261 268 195 186 172 160 188 233 246 268 293 304 146 173 87 357 315 303 301 309 311 314 312 311 310 306 311 309 322 312
59 50 41 32 351 275 273 260 260 244 263 274 275 189 187 183 190 186 184 161 209 224 253 248 140 162 169 327 252 260 285 289 290 304 303 305 299 296 316 311 299 312 304
57 40 267 249 241 242 256 261 267 272 286 288 260 250 222 189 202 201 197 189 202 212 198 223 192 183 209 268 283 221 238 267 283 298 296 298 306 305 312 309 301 292 298
184 213 235 291 324 292 275 278 278 280 279 279 265 255 245 217 201 209 210 206 202 194 203 208 236 225 270 300 291 270 274 273 262 286 277 301 295 317 312 302 294 291 288
23 14 337 278 262 267 296 298 299 285 266 264 229 235 237 235 228 207 210 213 208 197 191 223 244 249 270 279 276 273 273 236 244 257 274 266 256 290 305 314 312 302 294
320 286 278 279 299 302 294 289 285 276 267 237 243 251 248 243 238 218 205 211 217 210 222 233 227 234 232 246 266 267 251 225 214 228 235 255 277 299 298 312 316 312 309
282 283 300 300 291 284 270 262 260 250 222 232 236 231 236 247 230 201 201 210 213 216 170 179 222 240 253 259 246 240 247 233 210 202 255 293 286 292 305 318 318 331 328
271 276 259 267 267 268 271 280 263 251 269 272 267 237 250 239 226 215 204 210 215 212 181 180 212 226 240 251 235 251 249 236 189 206 254 254 283 299 307 320 318 329 331
263 258 254 250 252 261 262 255 267 247 246 256 265 269 264 254 233 227 230 211 206 184 191 195 200 215 240 252 231 222 236 212 178 191 184 259 283 294 313 319 308 323 332
274 257 256 251 247 254 252 255 249 240 272 263 246 254 262 259 245 236 224 221 208 210 202 208 217 221 234 242 234 218 191 181 179 190 205 247 279 248 319 320 318 298 319
316 299 282 276 270 264 267 259 258 261 247 259 270 261 252 257 253 241 226 224 208 210 213 220 215 221 230 236 225 214 184 189 185 188 218 224 249 205 303 299 309 315 310
328 323 315 311 300 289 270 267 272 262 259 262 258 258 260 215 248 233 237 230 212 216 211 218 218 218 226 230 222 206 194 186 199 198 216 212 224 180 239 287 294 303 304
318 315 318 316 311 304 293 280 270 260 262 261 275 257 245 253 252 245 236 226 220 217 219 219 219 214 219 223 202 189 195 197 203 197 186 198 170 200 251 262 275 308 313
334 321 313 307 302 299 296 285 272 276 249 254 271 259 259 254 241 244 250 232 222 216 217 217 220 216 214 216 212 195 195 199 198 182 186 184 176 194 229 242 309 328 313
315 310 309 318 299 290 291 301 282 250 245 250 265 280 289 259 232 237 259 258 233 211 208 213 220 218 213 212 209 203 202 204 198 185 181 181 176 185 177 200 231 327 341
328 339 326 335 343 316 294 286 281 235 235 246 293 338 350 331 290 254 255 274 253 232 218 211 216 218 218 215 213 207 208 200 183 185 174 169 173 170 164 172 174 158 204
348 353 358 351 350 342 344 4 15 17 15 25 29 11 354 346 340 339 347 340 284 253 235 229 230 231 227 221 217 211 205 190 177 167 164 155 160 158 153 161 168 219 217
349 3 359 351 349 351 357 356 6 11 12 8 3 359 349 356 360 354 353 346 336 324 278 231 232 236 236 234 228 214 200 188 172 166 158 156 157 161 156 184 207 195 205